Regional Weather Roundup
Issued by NWS Grand Forks, ND

Home | Current Version | Previous Version | Graphics & Text | Print | Product List | Glossary On
Versions: 1 2 3 4 5 6 7 8 9 10 11 12 13 14 15 16 17 18 19 20 21 22 23 24 25 26 27 28 29 30 31 32 33 34 35 36 37 38 39 40 41 42 43 44 45 46 47 48 49 50
000
ASUS43 KFGF 020610
RWRFGF
PRAIRIE TO PINES  WEATHER ROUNDUP
NATIONAL WEATHER SERVICE EASTERN NORTH DAKOTA/GRAND FORKS ND
100 AM CDT WED SEP 02 2015

 **SATELLITE DATA USED TO AUGMENT SKY COVER AT AUTOMATED STATIONS**
 *****  WEATHER ACROSS EASTERN NORTH DAKOTA  *****

CITY           SKY/WX    TMP DP  RH WIND       PRES   REMARKS
GRAND FORKS    FAIR      68  58  70 SE6       29.82S
6HR MIN TEMP:  67; 6HR MAX TEMP:  84;

GRAND FRKS AFB FAIR      65  57  76 SE6       29.82S
GRAND FRKS NWS   N/A     68 N/A N/A SE9         N/A
DEVILS LAKE    FAIR      70  57  64 SE9       29.81F
6HR MIN TEMP:  70; 6HR MAX TEMP:  82;

FARGO          FAIR      73  69  87 SE7       29.83S
WAHPETON ARPT  FAIR      70  66  88 SE7       29.85S
$$

 ***** WEATHER ACROSS CENTRAL AND WESTERN NORTH DAKOTA  *****

CITY           SKY/WX    TMP DP  RH WIND       PRES   REMARKS
BISMARCK       CLEAR     70  66  87 E5        29.79S
6HR MIN TEMP:  70; 6HR MAX TEMP:  86;

MINOT          FAIR      67  60  78 SE7       29.76F
6HR MIN TEMP:  67; 6HR MAX TEMP:  86;

JAMESTOWN      FAIR      67  65  93 SE6       29.82F
6HR MIN TEMP:  67; 6HR MAX TEMP:  83;

MINOT AFB      NOT AVBL
GARRISON         N/A     67  62  84 E6        29.78F
WILLISTON      CLEAR     60  42  51 NE3       29.79S
6HR MIN TEMP:  60; 6HR MAX TEMP:  91;

DICKINSON      CLEAR     64  55  72 S8        29.80S
6HR MIN TEMP:  62; 6HR MAX TEMP:  86;

HETTINGER      CLEAR     53  49  86 NW3       29.84S
6HR MIN TEMP:  52; 6HR MAX TEMP:  87;

$$

 *****  OTHER AIRPORT OBSERVATIONS IN OUR AREA  *****

CITY           SKY/WX    TMP DP  RH WIND       PRES   REMARKS
WALHALLA       NOT AVBL
GRAFTON AIRPOR FAIR      63  57  82 S3        29.82F
VALLEY CITY AR FAIR      68  68 100 S8        29.83F
CANDO          NOT AVBL
CAVALIER APRT  FAIR      57  55  94 CALM      29.81F
GWINNER          N/A     68  68 100 CALM      29.84S
SHEYENNE NWR     N/A     69  68  96 S3        29.95S
ROLLA          NOT AVBL
 ***** THE ABOVE OBSERVATIONS ARE NON NWS ARE NOT QUALITY
       CONTROLLED AND MAY MIS-REPORT RAIN FOR SNOW...
$$

  *****  WEATHER ACROSS NORTHERN MINNESOTA  *****

CITY           SKY/WX    TMP DP  RH WIND       PRES   REMARKS
FLAG ISLAND    FAIR      70  64  83 S7        29.86F
WARROAD        FAIR      63  57  82 S6        29.88F
ROSEAU         FAIR      63  55  77 S6        29.86F
HALLOCK        FAIR      70  54  56 SE8       29.82F
THF RVR FALLS  FAIR      66  59  77 E7        29.86S
6HR MIN TEMP:  64; 6HR MAX TEMP:  81;

BAUDETTE       FAIR      61  55  81 SE3       29.89F
6HR MIN TEMP:  61; 6HR MAX TEMP:  77;

WASKISH        FAIR      61  55  82 E5        29.90S
CROOKSTON      FAIR      66  61  82 SE7       29.85R
STEPHEN NDAWN    N/A     64  57  77 SE6         N/A
GREENBUSH NDAW   N/A     63  57  82 S3          N/A
$$
  *****  WEATHER ACROSS CENTRAL AND WEST MINNESOTA  *****

CITY           SKY/WX    TMP DP  RH WIND       PRES   REMARKS
FOSSTON        FAIR      66  57  72 SE5       29.88S
BEMIDJI        FAIR      64  59  85 SE3       29.90S
PARK RAPIDS    FAIR      69  63  81 S5        29.91R
6HR MIN TEMP:  66; 6HR MAX TEMP:  82;

ELBOW LAKE     FAIR      69  69  98 SE3       29.88S
6HR MIN TEMP:  69; 6HR MAX TEMP:  78;

WADENA         FAIR      66  66 100 CALM      29.90S FOG
DETROIT LAKES  FAIR      70  68  94 SE5       29.90S
MOORHEAD       FAIR      70  68  94 SE6       29.84F
FERGUS FALLS   FAIR      72  72 100 SE7       29.86S
MORRIS MN      FAIR      72  70  94 S9        29.88S FOG
STAPLES        FAIR      70  68  94 S3        29.91S
$$
  *****  WEATHER ELSEWHERE ACROSS MINNESOTA  *****

CITY           SKY/WX    TMP DP  RH WIND       PRES   REMARKS
DULUTH         FAIR      69  66  90 E3        29.94F
6HR MIN TEMP:  66; 6HR MAX TEMP:  79;

INTRNTL FALLS  FAIR      53  52  96 SE5       29.91F
6HR MIN TEMP:  52; 6HR MAX TEMP:  77;

ELY            FAIR      55  54  94 CALM      29.96S
CLOQUET        FAIR      70  66  88 CALM      29.94F
WHEATON        FOG       61  61 100 SE9       29.88S VSB 1/4
BRAINERD       MOCLDY    74  69  85 S7        29.92R
6HR MIN TEMP:  71; 6HR MAX TEMP:  76; 6HR PCP: TRACE;

HIBBING        FAIR      60  58  92 CALM      29.94F
6HR MIN TEMP:  59; 6HR MAX TEMP:  75;

ALEXANDRIA     FAIR      71  69  93 SE7       29.91S
6HR MIN TEMP:  70; 6HR MAX TEMP:  78;

SAINT CLOUD    LGT RAIN  71  69  93 CALM      29.91R
6HR MIN TEMP:  69; 6HR MAX TEMP:  79; 6HR PCP:  0.01;

MINNEAPOLIS    CLOUDY    78  72  81 S5        29.92S
6HR MIN TEMP:  77; 6HR MAX TEMP:  86;

$$

  *****  WEATHER ACROSS SOUTH DAKOTA  *****

CITY           SKY/WX    TMP DP  RH WIND       PRES   REMARKS
SIOUX FALLS    FAIR      74  70  87 S8        29.85F
6HR MIN TEMP:  72; 6HR MAX TEMP:  77;

BROOKINGS      FAIR      66  63  88 E9        29.90R
WATERTOWN      FAIR      69  62  78 SE10      29.88R
6HR MIN TEMP:  68; 6HR MAX TEMP:  80;

HURON          CLEAR     69  68  96 SE7       29.81F FOG
6HR MIN TEMP:  68; 6HR MAX TEMP:  80;

SISSETON         N/A     66  66 100 S8        29.85R
ABERDEEN       CLEAR     64  61  90 SE6       29.83S
6HR MIN TEMP:  63; 6HR MAX TEMP:  82;

MITCHELL       CLEAR     68  67  96 E3        29.82S FOG
PIERRE         CLEAR     71  68  90 SE10      29.77F
6HR MIN TEMP:  71; 6HR MAX TEMP:  86;

MOBRIDGE       CLEAR     67  66  97 SE6       29.78S
RAPID CITY     CLEAR     62  53  72 NW7       29.87F
6HR MIN TEMP:  59; 6HR MAX TEMP:  83;

$$

  *****  SOME WEATHER IN NEARBY STATES *****

CITY           SKY/WX    TMP DP  RH WIND       PRES   REMARKS
GLASGOW MT     CLEAR     60  41  49 E9        29.75F
6HR MIN TEMP:  60; 6HR MAX TEMP:  87;

GREAT FALLS MT MOCLDY    67  32  27 E9        29.76F
6HR MIN TEMP:  62; 6HR MAX TEMP:  83;

CHEYENNE WY    PTCLDY    62  40  44 W9        30.12S
6HR MIN TEMP:  62; 6HR MAX TEMP:  82;

SCOTTSBLUFF NE CLEAR     63  49  60 W5        29.94S
6HR MIN TEMP:  63; 6HR MAX TEMP:  90;

OMAHA NE       FAIR      78  67  68 S16       29.91F
6HR MIN TEMP:  78; 6HR MAX TEMP:  86;

DES MOINES IA  FAIR      76  67  73 S9        29.96F
6HR MIN TEMP:  75; 6HR MAX TEMP:  85;

DAVENPORT IA   FAIR      74  69  85 S7        30.03S
6HR MIN TEMP:  73; 6HR MAX TEMP:  82;

CHICAGO IL     FAIR      76  70  82 SW6       30.03S
6HR MIN TEMP:  76; 6HR MAX TEMP:  85;

EAU CLAIRE WI  FAIR      73  71  93 S5        29.95R
6HR MIN TEMP:  73; 6HR MAX TEMP:  84;

LA CROSSE WI   FAIR      77  73  87 SE5       29.95S
6HR MIN TEMP:  77; 6HR MAX TEMP:  85;

$$

  *****  SOME NATIONAL WEATHER *****

CITY           SKY/WX    TMP DP  RH WIND       PRES   REMARKS
LA GUARDIA NY  FAIR      76  68  76 S5        30.04F
6HR MIN TEMP:  76; 6HR MAX TEMP:  79;

RALEIGH NC     FAIR      70  68  93 CALM      30.08F
6HR MIN TEMP:  70; 6HR MAX TEMP:  80;

ATLANTA GA     FAIR      75  68  78 CALM      30.12S
6HR MIN TEMP:  75; 6HR MAX TEMP:  83;

NEW ORLEANS LA CLOUDY    80  72  76 CALM      30.06F
6HR MIN TEMP:  80; 6HR MAX TEMP:  86;

OKLAHOMA CITY  FAIR      74  63  68 SE9       30.03F
6HR MIN TEMP:  74; 6HR MAX TEMP:  89;

ALBUQUERQUE NM MOCLDY    72  42  34 SE5       30.18S
6HR MIN TEMP:  72; 6HR MAX TEMP:  85;

SALT LAKE CITY PTCLDY    81  37  20 S22G28    29.92R
6HR MIN TEMP:  79; 6HR MAX TEMP:  91; 6HR PCP: TRACE;



USA.gov is the U.S. government's official web portal to all federal, state and local government web resources and services.